| time (UTC) | temp F | wind direction | speed MPH | gust MPH | rain 1hr in | rain 24hr in | rain mn in | humidity % | barometer mb |
| 20260905032130 | 46 | 73 | 4.0 | 7.0 | 0.00 | 0.00 | 0.00 | 88 | 965.2 |
| 20260905031230 | 46 | 86 | 5.0 | 7.0 | 0.00 | 0.00 | 0.00 | 88 | 965.2 |
| 20260905030331 | 46 | 89 | 4.0 | 5.0 | 0.00 | 0.00 | 0.00 | 87 | 965.0 |
| 20260905025432 | 46 | 85 | 5.0 | 5.0 | 0.00 | 0.00 | 0.00 | 88 | 965.1 |
| 20260905024530 | 46 | 84 | 4.0 | 4.0 | 0.00 | 0.00 | 0.00 | 88 | 965.1 |
| 20260905023631 | 46 | 79 | 4.0 | 5.0 | 0.00 | 0.00 | 0.00 | 87 | 965.0 |
| 20260905022730 | 47 | 90 | 3.0 | 4.0 | 0.00 | 0.00 | 0.00 | 87 | 965.0 |
| 20260905021830 | 47 | 87 | 4.0 | 4.0 | 0.00 | 0.00 | 0.00 | 87 | 964.9 |
| 20260905020931 | 47 | 87 | 4.0 | 4.0 | 0.00 | 0.00 | 0.00 | 88 | 964.7 |
| 20260905020030 | 47 | 83 | 4.0 | 5.0 | 0.00 | 0.00 | 0.00 | 88 | 964.8 |
| 20260905013330 | 46 | 87 | 4.0 | 4.0 | 0.00 | 0.00 | 0.00 | 88 | 964.4 |
| 20260905012431 | 46 | 84 | 4.0 | 4.0 | 0.00 | 0.00 | 0.00 | 88 | 964.5 |
| 20260905011530 | 46 | 83 | 4.0 | 4.0 | 0.00 | 0.00 | 0.00 | 88 | 964.5 |
| 20260905010630 | 46 | 89 | 4.0 | 4.0 | 0.00 | 0.00 | 0.00 | 88 | 964.5 |
| 20260905005731 | 46 | 63 | 4.0 | 4.0 | 0.00 | 0.00 | 0.00 | 88 | 964.5 |
| 20260905004830 | 47 | 54 | 4.0 | 5.0 | 0.00 | 0.00 | 0.00 | 87 | 964.4 |
| 20260905003931 | 47 | 40 | 4.0 | 5.0 | 0.00 | 0.00 | 0.00 | 88 | 964.4 |
| 20260905003031 | 47 | 61 | 4.0 | 6.0 | 0.00 | 0.00 | 0.00 | 87 | 964.4 |
| 20260905002131 | 47 | 73 | 4.0 | 6.0 | 0.00 | 0.00 | 0.00 | 87 | 964.2 |
| 20260905001232 | 47 | 59 | 3.0 | 5.0 | 0.00 | 0.00 | 0.00 | 86 | 964.3 |
| 20260905000332 | 48 | 66 | 4.0 | 5.0 | 0.00 | 0.00 | 0.00 | 86 | 964.2 |
| 20260904235432 | 48 | 78 | 4.0 | 6.0 | 0.00 | 0.00 | 0.00 | 86 | 964.4 |
| 20260904233631 | 48 | 86 | 4.0 | 6.0 | 0.00 | 0.00 | 0.00 | 86 | 964.2 |
| 20260904232731 | 48 | 90 | 4.0 | 7.0 | 0.00 | 0.00 | 0.00 | 86 | 964.3 |
| 20260904231831 | 48 | 90 | 4.0 | 5.0 | 0.00 | 0.00 | 0.00 | 86 | 964.2 |
| 20260904230932 | 49 | 90 | 3.0 | 4.0 | 0.00 | 0.00 | 0.00 | 86 | 964.1 |
| 20260904224231 | 49 | 92 | 3.0 | 4.0 | 0.00 | 0.00 | 0.00 | 86 | 964.3 |
| 20260904223331 | 49 | 88 | 3.0 | 4.0 | 0.00 | 0.00 | 0.00 | 86 | 964.3 |
| 20260904222432 | 49 | 88 | 3.0 | 4.0 | 0.00 | 0.00 | 0.00 | 86 | 964.3 |
| 20260904221531 | 49 | 92 | 3.0 | 4.0 | 0.00 | 0.00 | 0.00 | 64 | 964.2 |
| 20260904220631 | 49 | 89 | 2.0 | 3.0 | 0.00 | 0.00 | 0.00 | 86 | 964.3 |
| 20260904215731 | 49 | 83 | 3.0 | 4.0 | 0.00 | 0.00 | 0.00 | 85 | 964.2 |
| 20260904214830 | 49 | 68 | 3.0 | 4.0 | 0.00 | 0.00 | 0.00 | 85 | 964.2 |
| 20260904213931 | 50 | 82 | 3.0 | 4.0 | 0.00 | 0.00 | 0.00 | 85 | 964.2 |
| 20260904213031 | 50 | 81 | 4.0 | 4.0 | 0.00 | 0.00 | 0.00 | 85 | 964.2 |
| 20260904212131 | 50 | 70 | 4.0 | 6.0 | 0.00 | 0.00 | 0.00 | 85 | 964.1 |
| 20260904211231 | 50 | 81 | 4.0 | 5.0 | 0.00 | 0.00 | 0.00 | 85 | 964.0 |
| 20260904210331 | 51 | 72 | 4.0 | 4.0 | 0.00 | 0.00 | 0.00 | 85 | 964.2 |
| 20260904205431 | 51 | 71 | 4.0 | 5.0 | 0.00 | 0.00 | 0.00 | 85 | 964.1 |
| 20260904204531 | 51 | 66 | 4.0 | 5.0 | 0.00 | 0.00 | 0.00 | 84 | 964.2 |
| 20260904203631 | 51 | 51 | 4.0 | 7.0 | 0.00 | 0.00 | 0.00 | 84 | 964.2 |
| 20260904201831 | 52 | 57 | 5.0 | 6.0 | 0.00 | 0.00 | 0.00 | 83 | 964.2 |
| 20260904200932 | 52 | 97 | 3.0 | 6.0 | 0.00 | 0.00 | 0.00 | 82 | 964.2 |
| 20260904200031 | 52 | 89 | 3.0 | 5.0 | 0.00 | 0.00 | 0.00 | 82 | 964.2 |
| 20260904194232 | 53 | 75 | 4.0 | 5.0 | 0.00 | 0.00 | 0.00 | 82 | 964.1 |
| 20260904192432 | 53 | 66 | 4.0 | 5.0 | 0.00 | 0.00 | 0.00 | 81 | 963.9 |
| 20260904191531 | 53 | 70 | 4.0 | 5.0 | 0.00 | 0.00 | 0.00 | 81 | 964.2 |
| 20260904190631 | 53 | 54 | 3.0 | 4.0 | 0.00 | 0.00 | 0.00 | 80 | 964.3 |
| 20260904185731 | 53 | 60 | 3.0 | 5.0 | 0.00 | 0.00 | 0.00 | 80 | 964.1 |
| 20260904184831 | 53 | 38 | 3.0 | 4.0 | 0.00 | 0.00 | 0.00 | 80 | 964.2 |
| 20260904183932 | 53 | 54 | 2.0 | 3.0 | 0.00 | 0.00 | 0.00 | 78 | 964.1 |
| 20260904183031 | 54 | 79 | 2.0 | 3.0 | 0.00 | 0.00 | 0.00 | 78 | 964.2 |
| 20260904182131 | 54 | 60 | 3.0 | 4.0 | 0.00 | 0.00 | 0.00 | 77 | 964.2 |
| 20260904180331 | 55 | 59 | 4.0 | 4.0 | 0.00 | 0.00 | 0.00 | 75 | 964.3 |
| 20260904175431 | 55 | 73 | 4.0 | 4.0 | 0.00 | 0.00 | 0.00 | 75 | 964.2 |
| 20260904174531 | 55 | 86 | 3.0 | 4.0 | 0.00 | 0.00 | 0.00 | 74 | 964.1 |
| 20260904173631 | 55 | 74 | 3.0 | 4.0 | 0.00 | 0.00 | 0.00 | 73 | 964.1 |
| 20260904172731 | 56 | 65 | 3.0 | 4.0 | 0.00 | 0.00 | 0.00 | 73 | 964.1 |
| 20260904171831 | 56 | 67 | 4.0 | 5.0 | 0.00 | 0.00 | 0.00 | 72 | 964.1 |
| 20260904170931 | 56 | 49 | 4.0 | 5.0 | 0.00 | 0.00 | 0.00 | 72 | 964.2 |
| 20260904170031 | 56 | 61 | 4.0 | 5.0 | 0.00 | 0.00 | 0.00 | 72 | 964.3 |
| 20260904165131 | 57 | 62 | 4.0 | 5.0 | 0.00 | 0.00 | 0.00 | 72 | 964.3 |
| 20260904164231 | 58 | 57 | 4.0 | 5.0 | 0.00 | 0.00 | 0.00 | 70 | 964.2 |
| 20260904163331 | 58 | 37 | 4.0 | 4.0 | 0.00 | 0.00 | 0.00 | 70 | 964.3 |
| 20260904161531 | 59 | 72 | 2.0 | 3.0 | 0.00 | 0.00 | 0.00 | 66 | 964.4 |
| 20260904160631 | 60 | 82 | 3.0 | 3.0 | 0.00 | 0.00 | 0.00 | 63 | 964.3 |
| 20260904155731 | 60 | 37 | 4.0 | 5.0 | 0.00 | 0.00 | 0.00 | 62 | 964.3 |
| 20260904154831 | 61 | 42 | 3.0 | 4.0 | 0.00 | 0.00 | 0.00 | 61 | 964.4 |
| 20260904153932 | 62 | 21 | 3.0 | 5.0 | 0.00 | 0.00 | 0.00 | 61 | 964.6 |
| 20260904153031 | 62 | 52 | 3.0 | 5.0 | 0.00 | 0.00 | 0.00 | 59 | 964.4 |
| 20260904152131 | 62 | 108 | 2.0 | 3.0 | 0.00 | 0.00 | 0.00 | 54 | 964.4 |
| 20260904151231 | 62 | 100 | 4.0 | 4.0 | 0.00 | 0.00 | 0.00 | 54 | 964.7 |
| 20260904150334 | 63 | 91 | 4.0 | 6.0 | 0.00 | 0.00 | 0.00 | 51 | 964.7 |
| 20260904144531 | 66 | 176 | 3.0 | 6.0 | 0.00 | 0.00 | 0.00 | 48 | 964.8 |
| 20260904143631 | 67 | 74 | 3.0 | 4.0 | 0.00 | 0.00 | 0.00 | 54 | 964.7 |
| 20260904142731 | 66 | 307 | 2.0 | 4.0 | 0.00 | 0.00 | 0.00 | 53 | 964.8 |
| 20260904141831 | 65 | 176 | 3.0 | 4.0 | 0.00 | 0.00 | 0.00 | 53 | 964.7 |
| 20260904140931 | 64 | 255 | 3.0 | 4.0 | 0.00 | 0.00 | 0.00 | 58 | 964.8 |
| 20260904140031 | 64 | 292 | 2.0 | 4.0 | 0.00 | 0.00 | 0.00 | 58 | 964.9 |
| 20260904135131 | 64 | 191 | 4.0 | 6.0 | 0.00 | 0.00 | 0.00 | 59 | 965.0 |
| 20260904134232 | 63 | 222 | 4.0 | 5.0 | 0.00 | 0.00 | 0.00 | 60 | 965.1 |
| 20260904133331 | 64 | 278 | 4.0 | 6.0 | 0.00 | 0.00 | 0.00 | 59 | 965.2 |
| 20260904131531 | 64 | 275 | 6.0 | 9.0 | 0.00 | 0.00 | 0.00 | 58 | 965.2 |
| 20260904130631 | 66 | 307 | 5.0 | 5.0 | 0.00 | 0.00 | 0.00 | 55 | 965.2 |
| 20260904125731 | 66 | 271 | 3.0 | 7.0 | 0.00 | 0.00 | 0.00 | 57 | 965.3 |
| 20260904124831 | 65 | 201 | 3.0 | 5.0 | 0.00 | 0.00 | 0.00 | 60 | 965.4 |
| 20260904123932 | 62 | 232 | 4.0 | 5.0 | 0.00 | 0.00 | 0.00 | 64 | 965.4 |
| 20260904123031 | 61 | 278 | 4.0 | 5.0 | 0.00 | 0.00 | 0.00 | 66 | 965.6 |
| 20260904121231 | 59 | 275 | 4.0 | 6.0 | 0.00 | 0.00 | 0.00 | 67 | 965.7 |
| 20260904120331 | 59 | 237 | 5.0 | 7.0 | 0.00 | 0.00 | 0.00 | 66 | 965.9 |
| 20260904115432 | 60 | 245 | 3.0 | 4.0 | 0.00 | 0.00 | 0.00 | 66 | 966.1 |
| 20260904114531 | 59 | 286 | 4.0 | 5.0 | 0.00 | 0.00 | 0.00 | 66 | 966.0 |
| 20260904113631 | 59 | 283 | 4.0 | 6.0 | 0.00 | 0.00 | 0.00 | 67 | 966.1 |
| 20260904112731 | 59 | 274 | 3.0 | 4.0 | 0.00 | 0.00 | 0.00 | 67 | 966.2 |
| 20260904111831 | 59 | 307 | 4.0 | 6.0 | 0.00 | 0.00 | 0.00 | 67 | 966.4 |
| 20260904110931 | 59 | 331 | 4.0 | 4.0 | 0.00 | 0.00 | 0.00 | 68 | 966.4 |
| 20260904110031 | 59 | 291 | 3.0 | 5.0 | 0.00 | 0.00 | 0.00 | 65 | 966.6 |
| 20260904105131 | 59 | 272 | 3.0 | 5.0 | 0.00 | 0.00 | 0.00 | 67 | 966.7 |
| 20260904104231 | 58 | 255 | 5.0 | 6.0 | 0.00 | 0.00 | 0.00 | 67 | 966.7 |
| 20260904103331 | 58 | 269 | 4.0 | 6.0 | 0.00 | 0.00 | 0.00 | 68 | 966.8 |
| 20260904102431 | 57 | 262 | 4.0 | 6.0 | 0.00 | 0.00 | 0.00 | 70 | 967.0 |
| 20260904101531 | 57 | 295 | 4.0 | 4.0 | 0.00 | 0.00 | 0.00 | 70 | 967.0 |
| 20260904100631 | 57 | 302 | 4.0 | 5.0 | 0.00 | 0.00 | 0.00 | 70 | 967.2 |
| 20260904095732 | 57 | 256 | 3.0 | 4.0 | 0.00 | 0.00 | 0.00 | 70 | 967.2 |
| 20260904094831 | 57 | 218 | 3.0 | 4.0 | 0.00 | 0.00 | 0.00 | 70 | 967.3 |
| 20260904093932 | 57 | 278 | 3.0 | 4.0 | 0.00 | 0.00 | 0.00 | 70 | 967.3 |
| 20260904093031 | 57 | 256 | 2.0 | 4.0 | 0.00 | 0.00 | 0.00 | 69 | 967.3 |
| 20260904092131 | 57 | 281 | 2.0 | 3.0 | 0.00 | 0.00 | 0.00 | 69 | 967.3 |
| 20260904091231 | 57 | 322 | 1.0 | 2.0 | 0.00 | 0.00 | 0.00 | 70 | 967.5 |
| 20260904090331 | 56 | 343 | 2.0 | 3.0 | 0.00 | 0.00 | 0.00 | 70 | 967.5 |
| 20260904084531 | 56 | 353 | 3.0 | 4.0 | 0.00 | 0.00 | 0.00 | 69 | 967.5 |
| 20260904083631 | 57 | 39 | 2.0 | 4.0 | 0.00 | 0.00 | 0.00 | 69 | 967.5 |
| 20260904082731 | 57 | 14 | 3.0 | 4.0 | 0.00 | 0.00 | 0.00 | 68 | 967.5 |
| 20260904081831 | 57 | 15 | 3.0 | 4.0 | 0.00 | 0.00 | 0.00 | 67 | 967.6 |
| 20260904080031 | 57 | 26 | 4.0 | 4.0 | 0.00 | 0.00 | 0.00 | 68 | 967.8 |
| 20260904075131 | 58 | 39 | 3.0 | 3.0 | 0.00 | 0.00 | 0.00 | 69 | 967.9 |
| 20260904073331 | 56 | 12 | 2.0 | 3.0 | 0.00 | 0.00 | 0.00 | 71 | 967.9 |
| 20260904072431 | 56 | 14 | 1.0 | 2.0 | 0.00 | 0.00 | 0.00 | 71 | 968.0 |
| 20260904071531 | 54 | 59 | 3.0 | 4.0 | 0.00 | 0.00 | 0.00 | 72 | 968.0 |
| 20260904070632 | 52 | 82 | 4.0 | 4.0 | 0.00 | 0.00 | 0.00 | 75 | 968.1 |
| 20260904065731 | 52 | 49 | 3.0 | 4.0 | 0.00 | 0.00 | 0.00 | 75 | 968.1 |
| 20260904064831 | 50 | 41 | 2.0 | 3.0 | 0.00 | 0.00 | 0.00 | 77 | 968.2 |
| 20260904063931 | 51 | 342 | 1.0 | 2.0 | 0.00 | 0.00 | 0.00 | 82 | 968.3 |
| 20260904063031 | 46 | 356 | 2.0 | 3.0 | 0.00 | 0.00 | 0.00 | 83 | 968.3 |
| 20260904062131 | 45 | 54 | 3.0 | 4.0 | 0.00 | 0.00 | 0.00 | 84 | 968.2 |
| 20260904061231 | 44 | 82 | 2.0 | 3.0 | 0.00 | 0.00 | 0.00 | 83 | 968.4 |
| 20260904060331 | 44 | 76 | 1.0 | 2.0 | 0.00 | 0.00 | 0.00 | 83 | 968.4 |
| 20260904055432 | 44 | 38 | 2.0 | 3.0 | 0.00 | 0.00 | 0.00 | 83 | 968.4 |
| 20260904054531 | 44 | 42 | 3.0 | 4.0 | 0.00 | 0.00 | 0.00 | 82 | 968.4 |
| 20260904052731 | 46 | 74 | 4.0 | 5.0 | 0.00 | 0.00 | 0.00 | 80 | 968.3 |
| 20260904051831 | 45 | 60 | 4.0 | 4.0 | 0.00 | 0.00 | 0.00 | 82 | 968.4 |
| 20260904050932 | 45 | 82 | 4.0 | 4.0 | 0.00 | 0.00 | 0.00 | 83 | 968.4 |
| 20260904050031 | 44 | 79 | 4.0 | 5.0 | 0.00 | 0.00 | 0.00 | 85 | 968.3 |
| 20260904045131 | 43 | 69 | 4.0 | 6.0 | 0.00 | 0.00 | 0.00 | 87 | 968.4 |
| 20260904044232 | 42 | 61 | 4.0 | 4.0 | 0.00 | 0.00 | 0.00 | 87 | 968.5 |
| 20260904043331 | 42 | 61 | 4.0 | 7.0 | 0.00 | 0.00 | 0.00 | 87 | 968.5 |
| 20260904042431 | 42 | 82 | 5.0 | 7.0 | 0.00 | 0.00 | 0.00 | 87 | 968.4 |
| 20260904041531 | 41 | 87 | 5.0 | 6.0 | 0.00 | 0.00 | 0.00 | 87 | 968.5 |
| 20260904040631 | 41 | 86 | 5.0 | 5.0 | 0.00 | 0.00 | 0.00 | 87 | 968.5 |
| 20260904035731 | 41 | 52 | 3.0 | 4.0 | 0.00 | 0.00 | 0.00 | 86 | 968.5 |
| 20260904034831 | 42 | 35 | 4.0 | 5.0 | 0.00 | 0.00 | 0.00 | 86 | 968.5 |
| 20260904033932 | 43 | 70 | 4.0 | 4.0 | 0.00 | 0.00 | 0.00 | 86 | 968.6 |